[[{"header":{"parameterUnit":"m.s-1","parameterCategory":1,"la1":30.2992,"la2":30.254,"lo1":-89.0895,"lo2":-89.0443,"dy":0.0025,"dx":0.0025,"nx":19,"ny":19,"refTime":"2026-05-22T03:00:00:Z","depth":0,"parameterNumber":2,"parameterNumberName":"U-component_of_WINDS"},"data":[0,0,0,-2.5393,-2.5401,-2.5824,-2.5826,-2.6314,-2.6318,0,0,0,0,0,0,0,0,0,0,0,-2.5234,-2.5236,-2.5392,-2.5402,-2.5824,-2.5826,-2.6313,-2.6318,0,0,0,0,0,0,0,0,0,0,0,-2.5233,-2.5236,-2.5238,-2.5403,-2.5823,-2.5826,-2.6313,-2.6013,0,0,0,0,0,0,0,0,0,0,-2.5611,-2.5432,-2.5235,-2.5239,-2.5405,-2.5823,-2.5826,-2.5999,-2.6031,-2.61,0,-2.615,0,-2.6241,-2.6347,-2.6349,0,0,0,-2.5427,-2.5405,-2.5549,-2.5239,-2.5409,-2.5822,-2.564,-2.6018,-2.6054,-2.6142,-2.6158,-2.6178,-2.6249,-2.635,-2.6352,-2.6659,-2.6659,0,0,-2.5403,-2.5293,-2.5523,-2.5571,-2.5501,-2.5627,-2.5653,-2.6041,-2.6051,-2.616,-2.619,-2.6258,-2.6353,-2.6356,-2.6659,-2.6659,0,0,0,-2.5319,-2.5275,-2.5411,-2.5549,-2.5629,-2.5638,-2.5669,-2.6034,-2.6087,-2.6196,-2.6263,-2.6355,-2.6361,-2.6659,-2.6659,-2.6563,0,0,0,-2.5306,-2.5227,-2.5399,-2.5336,-2.5621,-2.5837,-2.5652,-2.606,-2.6108,-2.6261,-2.6356,-2.6365,-2.6659,-2.6659,-2.6565,-2.6537,0,0,0,-2.5218,-2.5217,-2.5266,-2.5329,-2.5507,-2.5833,-2.591,-2.6073,-2.6148,-2.6349,-2.6366,-2.6658,-2.6659,-2.6568,-2.654,-2.6585,0,0,0,-2.5092,-2.5177,-2.5263,-2.5384,-2.5503,-2.577,-2.5908,-2.6114,-2.6275,-2.6358,-2.6659,-2.6659,-2.6568,-2.6543,-2.6586,-2.6602,-2.6598,0,0,-2.5137,-2.5178,-2.5258,-2.5348,-2.5571,-2.5714,-2.5925,-2.6178,-2.6299,-2.6532,-2.6541,-2.6565,-2.6541,-2.6585,-2.6615,-2.661,0,0,0,-2.5235,-2.5291,-2.5374,-2.5521,-2.5715,-2.5879,-2.6111,-2.6205,-2.6408,-2.6396,-2.6596,-2.6586,-2.6616,-2.6629,-2.6625,-2.6659,-2.666,-2.666,-2.666,-2.5141,-2.529,-2.5431,-2.563,-2.5771,-2.6009,-2.6137,-2.6305,-2.6415,-2.6459,-2.6529,-2.6529,-2.654,-2.6538,-2.6571,-2.655,-2.655,-2.6549,-2.6549,-2.5221,-2.5323,-2.5465,-2.5654,-2.581,-2.5971,-2.6203,-2.6275,-2.6448,-2.6489,-2.6523,-2.6554,-2.6529,-2.6565,-2.6544,-2.6545,-2.6545,-2.6546,-2.6546,-2.5176,-2.5251,-2.5362,-2.5589,-2.5748,-2.5947,-2.6106,-2.6244,-2.6375,-2.6409,-2.6498,-2.65,-2.6519,-2.6441,-2.6441,-2.6442,-2.6442,-2.6442,-2.6442,-2.5085,-2.5214,-2.533,-2.5541,-2.5653,-2.5818,-2.6056,-2.6172,-2.6334,-2.6422,-2.6424,-2.6528,-2.6498,-2.6487,-2.6442,-2.6442,-2.6442,-2.6442,-2.6442,-2.5111,-2.5127,-2.5305,-2.5417,-2.5676,-2.5824,-2.5998,-2.6219,-2.6334,-2.6408,-2.6506,-2.6461,-2.6513,-2.6517,-2.6509,-2.6473,-2.6473,-2.6473,-2.6473,-2.5073,-2.5112,-2.5326,-2.5495,-2.5677,-2.5851,-2.6049,-2.6235,-2.643,-2.6511,-2.6536,-2.6537,-2.6535,-2.6589,-2.6591,-2.6586,-2.657,-2.6571,-2.6571,-2.5097,-2.516,-2.5301,-2.549,-2.5703,-2.5882,-2.6073,-2.6263,-2.6488,-2.6578,-2.6577,-2.6573,-2.6577,-2.657,-2.6659,-2.6659,-2.6653,0,0]},{"header":{"parameterUnit":"m.s-1","parameterCategory":1,"la1":30.2992,"la2":30.254,"lo1":-89.0895,"lo2":-89.0443,"dy":0.0025,"dx":0.0025,"nx":19,"ny":19,"refTime":"2026-05-22T03:00:00:Z","depth":0,"parameterNumber":3,"parameterNumberName":"V-component_of_WINDS"},"data":[0,0,0,6.1798,6.1806,6.2183,6.2184,6.266,6.2664,0,0,0,0,0,0,0,0,0,0,0,6.1681,6.1684,6.1797,6.1807,6.2182,6.2184,6.2659,6.2664,0,0,0,0,0,0,0,0,0,0,0,6.168,6.1684,6.1687,6.1808,6.2182,6.2184,6.2658,6.2377,0,0,0,0,0,0,0,0,0,0,6.2012,6.1899,6.1683,6.1688,6.181,6.2182,6.2184,6.2363,6.2394,6.2487,0,6.2566,0,6.2622,6.2696,6.2697,0,0,0,6.1811,6.1873,6.1979,6.1688,6.1814,6.2181,6.2014,6.2381,6.2416,6.2528,6.2573,6.259,6.263,6.2699,6.2701,6.3215,6.3217,0,0,6.179,6.1747,6.1955,6.2002,6.1941,6.2002,6.2026,6.2402,6.2449,6.2574,6.2602,6.2638,6.2702,6.2705,6.3213,6.3215,0,0,0,6.1728,6.1732,6.1829,6.1982,6.205,6.2013,6.204,6.2432,6.2467,6.2607,6.2644,6.2704,6.271,6.321,6.3214,6.328,0,0,0,6.1715,6.1696,6.182,6.1797,6.2043,6.2245,6.2061,6.2441,6.2485,6.2641,6.2705,6.2715,6.3208,6.3212,6.3273,6.332,0,0,0,6.1659,6.1689,6.1742,6.1794,6.1954,6.224,6.2297,6.2452,6.2507,6.2698,6.2716,6.3206,6.3211,6.3267,6.331,6.3443,0,0,0,6.1586,6.1796,6.1742,6.199,6.195,6.2277,6.2295,6.2542,6.2712,6.2707,6.3208,6.3213,6.3265,6.3303,6.3436,6.3549,6.3591,0,0,6.1827,6.1823,6.1973,6.1935,6.2261,6.2223,6.256,6.2758,6.2817,6.3079,6.3092,6.3275,6.3309,6.3442,6.384,6.3873,0,0,0,6.2034,6.2141,6.2237,6.2397,6.2552,6.269,6.2841,6.2915,6.3139,6.2942,6.336,6.3382,6.3461,6.3517,6.3546,6.3618,6.3237,6.3236,6.3236,6.2313,6.2375,6.2628,6.2735,6.289,6.3044,6.3176,6.3302,6.332,6.3418,6.3497,6.373,6.3794,6.3816,6.389,6.356,6.356,6.356,6.356,6.2672,6.2835,6.2853,6.3104,6.3169,6.3382,6.3538,6.3544,6.3752,6.3676,6.3749,6.3662,6.385,6.3919,6.3566,6.3565,6.3564,6.3564,6.3563,6.2864,6.2952,6.3037,6.3274,6.3451,6.3553,6.3753,6.3805,6.3856,6.3928,6.4019,6.4018,6.4025,6.3967,6.3968,6.3969,6.3969,6.397,6.3971,6.3029,6.3123,6.3283,6.3465,6.3575,6.3726,6.3882,6.3993,6.4129,6.4151,6.4152,6.4162,6.3856,6.3778,6.3984,6.3981,6.398,6.3978,6.3977,6.3374,6.3304,6.3552,6.3662,6.388,6.4053,6.4116,6.4337,6.4435,6.4533,6.4527,6.4291,6.4292,6.427,6.4207,6.4511,6.4511,6.4511,6.4511,6.3537,6.3541,6.3807,6.3979,6.4154,6.4236,6.4517,6.4641,6.4758,6.4824,6.4787,6.4707,6.4682,6.4698,6.4667,6.4609,6.5009,6.5009,6.501,6.3753,6.3777,6.4005,6.4116,6.4291,6.444,6.4707,6.4906,6.5025,6.5031,6.4877,6.4856,6.4727,6.4682,6.4686,6.4636,6.4531,0,0]}]]